This is the latest recevied weather packets stored in our database for station/object N5CSU. If no packets are shown the sender has not sent any weather packets the latest 10 day(s).
| Time | Temp. | Humidity | Pressure | Rain* | Wind** | Luminosity | Snow |
|---|---|---|---|---|---|---|---|
| 1787848573 | 34.44° C | 57% | 1016.3 hPa | 0 mm | - | 282 W/m² | - |
| 1787848272 | 33.89° C | 57% | 1016.5 hPa | 0 mm | - | 222 W/m² | - |
| 1787847968 | 33.89° C | 57% | 1016.5 hPa | 0 mm | - | 228 W/m² | - |
| 1787847667 | 34.44° C | 57% | 1016.4 hPa | 0 mm | - | 377 W/m² | - |
| 1787847362 | 34.44° C | 56% | 1016.3 hPa | 0 mm | - | 437 W/m² | - |
| 1787847058 | 33.89° C | 59% | 1016.4 hPa | 0 mm | - | 426 W/m² | - |
| 1787846754 | 33.33° C | 59% | 1016.1 hPa | 0 mm | - | 416 W/m² | - |
| 1787846449 | 32.78° C | 62% | 1016.3 hPa | 0 mm | - | 406 W/m² | - |
| 1787846145 | 32.22° C | 63% | 1016.4 hPa | 0 mm | - | 397 W/m² | - |
| 1787845845 | 31.67° C | 63% | 1016.3 hPa | 0 mm | - | 385 W/m² | - |
| 1787845541 | 31.67° C | 63% | 1016.1 hPa | 0 mm | - | 22 W/m² | - |
| 1787845235 | 31.67° C | 64% | 1016 hPa | 0 mm | - | 22 W/m² | - |
| 1787844931 | 31.11° C | 65% | 1016 hPa | 0 mm | - | 21 W/m² | - |
| 1787844626 | 31.11° C | 65% | 1016 hPa | 0 mm | - | 20 W/m² | - |
| 1787844321 | 31.11° C | 66% | 1016.3 hPa | 0 mm | - | 20 W/m² | - |
| 1787844020 | 31.11° C | 67% | 1015.9 hPa | 0 mm | - | 20 W/m² | - |
| 1787843720 | 30.56° C | 67% | 1015.9 hPa | 0 mm | - | 19 W/m² | - |
| 1787843416 | 30° C | 68% | 1016 hPa | 0 mm | - | 19 W/m² | - |
| 1787843113 | 30° C | 69% | 1015.8 hPa | 0 mm | - | 18 W/m² | - |
| 1787842812 | 30° C | 70% | 1015.9 hPa | 0 mm | - | 18 W/m² | - |
| 1787842507 | 29.44° C | 70% | 1015.9 hPa | 0 mm | - | 18 W/m² | - |
| 1787842206 | 30° C | 70% | 1015.8 hPa | 0 mm | - | 17 W/m² | - |
| 1787841901 | 29.44° C | 70% | 1015.9 hPa | 0 mm | - | 17 W/m² | - |
| 1787841597 | 29.44° C | 71% | 1015.8 hPa | 0 mm | - | 16 W/m² | - |
| 1787841296 | 28.89° C | 72% | 1015.8 hPa | 0 mm | - | 16 W/m² | - |
* Rain latest hour (hover to see other rain measurements)
** Current wind speed in m/s (hover to see current wind gust speed)